FW3012 Weather Reports


Display with metric or nautical units.
time (UTC)temp
F
wind
direction
speed
MPH
gust
MPH
rain 1hr
in
rain 24hr
in
rain mn
in
humidity
%
barometer
mb
20260505113040 75 270 3.0 7.0 0.00 0.00 0.00 27 993.8
20260505100040 74 248 3.0 9.0 0.00 0.00 0.00 30 994.4
20260505093122 73 293 3.0 10.0 0.00 0.00 0.00 32 994.7
20260505090042 72 315 4.0 10.0 0.00 0.00 0.00 35 994.9
20260505083414 72 315 4.0 9.0 0.00 0.00 0.00 34 995.1
20260505080414 71 293 5.0 11.0 0.00 0.00 0.00 33 995.5
20260505073042 70 225 3.0 9.0 0.00 0.00 0.00 37 995.6
20260505070202 69 293 4.0 10.0 0.00 0.00 0.00 37 995.6
20260505063041 68 293 4.0 9.0 0.00 0.00 0.00 37 995.6
20260505060042 66 270 4.0 9.0 0.00 0.00 0.00 40 995.7
20260505053516 64 270 4.0 9.0 0.00 0.00 0.00 39 995.8
20260505040041 56 270 3.0 8.0 0.00 0.00 0.00 45 996.0
20260505033041 53 225 2.0 7.0 0.00 0.00 0.00 49 995.9
20260505030433 52 248 2.0 7.0 0.00 0.00 0.00 50 995.9
20260505020041 49 270 1.0 4.0 0.00 0.00 0.00 54 995.8
20260505013041 48 270 1.0 4.0 0.00 0.00 0.00 56 995.6
20260505003041 49 270 1.0 4.0 0.00 0.00 0.00 56 995.7
20260504233041 50 248 1.0 6.0 0.00 0.00 0.00 53 995.6
20260504230041 51 270 2.0 6.0 0.00 0.00 0.00 51 995.6
20260504223041 51 270 1.0 4.0 0.00 0.00 0.00 52 995.5
20260504220040 52 248 1.0 5.0 0.00 0.00 0.00 51 995.6
20260504213101 53 225 2.0 5.0 0.00 0.00 0.00 49 995.4
20260504203042 54 225 2.0 8.0 0.00 0.00 0.00 47 995.5
20260504200042 55 225 1.0 5.0 0.00 0.00 0.00 46 995.4
20260504193042 55 225 1.0 3.0 0.00 0.00 0.00 46 995.4
20260504183042 56 225 1.0 3.0 0.00 0.00 0.00 46 995.4
20260504180041 56 0.0 3.0 0.00 0.00 0.00 48 995.5
20260504173141 58 0.0 2.0 0.00 0.00 0.00 45 995.5
20260504140412 68 315 3.0 9.0 0.00 0.00 0.00 30 995.0